Florence, SC

9:55 PM EST on January 19, 2017 (GMT -0500)
Florence Regional

Weather History for KFLO - April, 2013

Change the Weather History Date:

Tuesday, April 30, 2013

  Actual Average Record
Temperature  
Mean Temperature 69 °F 67 °F  
Max Temperature 78 °F 79 °F 94 °F (1962)
Min Temperature 60 °F 54 °F 41 °F (2008)
Degree Days  
Heating Degree Days 0 2  
Month to date heating degree days 100 123  
Since 1 July heating degree days 2311 2500  
Cooling Degree Days 4 4  
Month to date cooling degree days 66 72  
Year to date cooling degree days 95 96  
Growing Degree Days 19 (Base 50)    
Moisture  
Dew Point 61 °F    
Average Humidity 74    
Maximum Humidity 93    
Minimum Humidity 54    
Precipitation  
Precipitation 0.06 in 0.08 in 2.26 in (1999)
Month to date precipitation 4.96 2.62  
Year to date precipitation 13.97 12.10  
Sea Level Pressure  
Sea Level Pressure 30.04 in    
Wind  
Wind Speed 6 mph (NE)    
Max Wind Speed 15 mph    
Max Gust Speed 20 mph    
Visibility 6 miles    
Events Fog , Rain    
T = Trace of Precipitation, MM = Missing Value Source: NWS Daily Summary

Daily Weather History Graph

Daily Weather History Graph

Search for Another Location

Airport or City:

Trip Planner

Search our weather history database for the weather conditions in past years. The results will help you decide how hot, cold, wet, or windy it might be!

Date:

Astronomy

Apr. 30, 2013 Rise Set
Actual Time 6:30 AM EDT 8:02 PM EDT
Civil Twilight 6:03 AM EDT 8:29 PM EDT
Nautical Twilight 5:31 AM EDT 9:01 PM EDT
Astronomical Twilight 4:57 AM EDT 9:34 PM EDT
Moon 12:21 AM EDT (4/30) 10:59 AM EDT (4/30)
Length of Visible Light 14h 25m
Length of Day
13h 32m
Waning Gibbous, 70% of the Moon is Illuminated
Apr 30
Waning Gibbous
May 2
Last Quarter
May 9
New
May 18
First Quarter
May 25
Full

Hourly Weather History & Observations

Time (EDT) Temp. Dew Point Humidity Pressure Visibility Wind Dir Wind Speed Gust Speed Precip Events Conditions
12:53 AM 62.1 °F 60.1 °F 93% 29.99 in 7.0 mi NE 4.6 mph - N/A   Clear
1:02 AM 62.6 °F 60.8 °F 94% 29.99 in 7.0 mi ENE 4.6 mph - N/A   Partly Cloudy
1:10 AM 60.8 °F 59.0 °F 94% 29.99 in 1.8 mi NE 4.6 mph - N/A   Mostly Cloudy
1:19 AM 60.8 °F 60.8 °F 100% 29.99 in 0.5 mi Calm Calm - N/A Fog Fog
1:53 AM 62.1 °F 60.1 °F 93% 29.98 in 0.2 mi Calm Calm - N/A Fog Fog
2:15 AM 62.6 °F 60.8 °F 94% 29.99 in 0.5 mi ESE 4.6 mph - N/A Fog Fog
2:53 AM 62.1 °F 61.0 °F 96% 29.99 in 0.5 mi SSE 4.6 mph - N/A Fog Fog
3:12 AM 62.6 °F 60.8 °F 94% 29.99 in 1.2 mi SE 3.5 mph - N/A   Overcast
3:24 AM 62.6 °F 60.8 °F 94% 29.99 in 2.0 mi Calm Calm - N/A   Overcast
3:35 AM 62.6 °F 60.8 °F 94% 29.99 in 6.0 mi Calm Calm - N/A   Overcast
3:53 AM 62.1 °F 61.0 °F 96% 29.99 in 5.0 mi Calm Calm - N/A   Overcast
4:34 AM 62.6 °F 60.8 °F 94% 30.00 in 1.8 mi SE 3.5 mph - N/A   Overcast
4:53 AM 62.1 °F 61.0 °F 96% 30.00 in 0.8 mi Calm Calm - N/A   Mist
5:53 AM 62.1 °F 60.1 °F 93% 30.01 in 1.0 mi NE 3.5 mph - N/A   Mist
6:09 AM 62.6 °F 60.8 °F 94% 30.02 in 3.0 mi NNE 4.6 mph - N/A   Overcast
6:22 AM 62.6 °F 60.8 °F 94% 30.03 in 1.8 mi North 4.6 mph - N/A   Overcast
6:44 AM 62.6 °F 60.8 °F 94% 30.03 in 3.0 mi North 4.6 mph - N/A   Overcast
6:53 AM 62.1 °F 60.1 °F 93% 30.03 in 3.0 mi NNE 3.5 mph - N/A   Overcast
7:00 AM 62.6 °F 60.8 °F 94% 30.04 in 1.8 mi NE 3.5 mph - N/A   Overcast
7:11 AM 62.6 °F 60.8 °F 94% 30.04 in 3.0 mi NNE 5.8 mph - N/A   Overcast
7:24 AM 62.6 °F 60.8 °F 94% 30.05 in 2.0 mi NE 4.6 mph - N/A   Overcast
7:42 AM 62.6 °F 60.8 °F 94% 30.05 in 4.0 mi NE 6.9 mph - N/A   Overcast
7:53 AM 62.1 °F 60.1 °F 93% 30.05 in 4.0 mi NNE 4.6 mph - N/A   Overcast
8:02 AM 62.6 °F 60.8 °F 94% 30.05 in 1.0 mi NNE 5.8 mph - N/A   Overcast
8:53 AM 63.0 °F 61.0 °F 93% 30.06 in 1.0 mi NE 8.1 mph - N/A   Overcast
9:00 AM 62.6 °F 60.8 °F 94% 30.06 in 10.0 mi NNE 6.9 mph - N/A   Overcast
9:53 AM 64.9 °F 60.1 °F 84% 30.06 in 10.0 mi NE 10.4 mph - N/A   Overcast
10:49 AM 66.2 °F 60.8 °F 83% 30.07 in 10.0 mi NNE 8.1 mph - N/A   Overcast
10:53 AM 66.0 °F 61.0 °F 84% 30.07 in 10.0 mi NE 6.9 mph - N/A   Overcast
11:53 AM 66.9 °F 62.1 °F 84% 30.07 in 10.0 mi North 8.1 mph - N/A   Overcast
12:53 PM 66.9 °F 61.0 °F 81% 30.07 in 10.0 mi NE 6.9 mph - N/A   Overcast
1:53 PM 70.0 °F 61.0 °F 73% 30.06 in 10.0 mi ENE 3.5 mph - N/A   Overcast
2:25 PM 73.4 °F 60.8 °F 65% 30.06 in 10.0 mi East 8.1 mph - N/A   Scattered Clouds
2:53 PM 73.9 °F 61.0 °F 64% 30.04 in 10.0 mi ENE 8.1 mph - N/A   Scattered Clouds
3:53 PM 75.9 °F 61.0 °F 60% 30.02 in 10.0 mi Calm Calm - N/A   Scattered Clouds
4:53 PM 78.1 °F 61.0 °F 56% 30.02 in 10.0 mi Variable 3.5 mph - N/A   Mostly Cloudy
5:53 PM 77.0 °F 59.0 °F 54% 30.03 in 10.0 mi NE 4.6 mph - N/A   Clear
6:53 PM 73.9 °F 62.1 °F 66% 30.05 in 10.0 mi North 5.8 mph - N/A   Overcast
7:53 PM 70.0 °F 63.0 °F 78% 30.07 in 7.0 mi NE 10.4 mph - 0.06 in Rain Light Rain
8:53 PM 68.0 °F 61.0 °F 78% 30.10 in 10.0 mi NE 15.0 mph - 0.00 in   Overcast
9:53 PM 64.9 °F 60.1 °F 84% 30.12 in 10.0 mi NE 9.2 mph - N/A   Mostly Cloudy
10:53 PM 64.0 °F 57.9 °F 80% 30.14 in 10.0 mi NE 6.9 mph - N/A   Partly Cloudy
11:53 PM 62.1 °F 57.0 °F 84% 30.13 in 10.0 mi NE 6.9 mph - N/A   Clear